TimeMDT,TemperatureF,Dew PointF,Humidity,Sea Level PressureIn,VisibilityMPH,Wind Direction,Wind SpeedMPH,Gust SpeedMPH,PrecipitationIn,Events,Conditions,WindDirDegrees,DateUTC
12:52 AM,27.0,10.9,51,29.99,10.0,SW,6.9,-,N/A,,Clear,220,2013-03-19 06:52:00
1:52 AM,24.1,14.0,65,30.01,10.0,WNW,8.1,-,N/A,,Clear,300,2013-03-19 07:52:00
2:52 AM,26.1,15.1,63,30.00,10.0,NW,10.4,-,N/A,,Clear,310,2013-03-19 08:52:00
3:52 AM,25.0,15.1,66,30.02,10.0,WNW,8.1,-,N/A,,Clear,300,2013-03-19 09:52:00
4:52 AM,24.1,15.1,69,30.05,10.0,NNW,12.7,-,N/A,,Clear,330,2013-03-19 10:52:00
5:52 AM,24.1,15.1,69,30.08,10.0,NW,11.5,-,N/A,,Clear,320,2013-03-19 11:52:00
6:52 AM,24.1,15.1,69,30.13,10.0,NW,11.5,-,N/A,,Clear,320,2013-03-19 12:52:00
7:52 AM,28.9,18.0,64,30.16,10.0,NNW,15.0,-,N/A,,Clear,330,2013-03-19 13:52:00
8:52 AM,33.1,21.0,61,30.19,10.0,NNW,19.6,-,N/A,,Clear,340,2013-03-19 14:52:00
9:52 AM,35.1,19.0,52,30.20,10.0,NNW,24.2,29.9,N/A,,Clear,340,2013-03-19 15:52:00
10:52 AM,36.0,17.1,46,30.22,10.0,North,24.2,31.1,N/A,,Clear,350,2013-03-19 16:52:00
11:52 AM,37.0,15.1,41,30.24,10.0,North,21.9,33.4,N/A,,Clear,350,2013-03-19 17:52:00
12:52 PM,37.9,16.0,41,30.25,10.0,North,26.5,36.8,N/A,,Clear,350,2013-03-19 18:52:00
1:52 PM,37.0,10.9,34,30.26,10.0,North,26.5,39.1,N/A,,Partly Cloudy,350,2013-03-19 19:52:00
2:52 PM,37.0,7.0,29,30.28,10.0,NNW,26.5,39.1,N/A,,Clear,340,2013-03-19 20:52:00
3:52 PM,37.0,7.0,29,30.30,10.0,North,26.5,39.1,N/A,,Clear,350,2013-03-19 21:52:00
4:52 PM,36.0,6.1,29,30.34,10.0,North,21.9,31.1,N/A,,Clear,350,2013-03-19 22:52:00
5:52 PM,34.0,6.1,31,30.36,10.0,NNW,20.7,-,N/A,,Clear,340,2013-03-19 23:52:00
6:52 PM,30.0,5.0,35,30.39,10.0,North,15.0,-,N/A,,Clear,350,2013-03-20 00:52:00
7:52 PM,26.1,3.9,39,30.41,10.0,North,12.7,-,N/A,,Clear,360,2013-03-20 01:52:00
8:52 PM,21.2,6.8,54,30.31,10.0,North,9.2,-,N/A,,Clear,10,2013-03-20 02:52:00
9:52 PM,17.1,6.1,62,30.47,10.0,North,6.9,-,N/A,,Clear,350,2013-03-20 03:52:00
10:52 PM,17.1,6.1,62,30.47,10.0,Calm,Calm,-,N/A,,Clear,0,2013-03-20 04:52:00
11:52 PM,12.0,3.9,70,30.47,10.0,NW,3.5,-,N/A,,Clear,320,2013-03-20 05:52:00